Regional Weather Roundup
Issued by NWS

Home | Current Version | Previous Version | Text Only | Print | Product List | Glossary On
Versions: 1 2 3 4 5 6 7 8 9 10 11 12 13 14 15 16 17 18 19 20 21 22 23 24 25 26 27 28 29 30 31 32 33 34 35 36 37 38 39 40 41 42 43 44
000
ASUS46 KSEW 261710
RWRWA

WASHINGTON REGIONAL WEATHER ROUNDUP
NATIONAL WEATHER SERVICE SEATTLE WA
900 AM PST FRI DEC 26 2014

NOTE:"FAIR" INDICATES FEW OR NO CLOUDS BELOW 12,000 FEET WITH NO
SIGNIFICANT WEATHER AND/OR OBSTRUCTIONS TO VISIBILITY.

WAZ505-507>509-261800-
SEATTLE, TACOMA, EVERETT, AND VICINITY

CITY           SKY/WX    TMP DP  RH WIND       PRES   REMARKS
EVERETT        FOG       38  36  92 SE5       30.35R VSB 1/4
BOEING FIELD   CLOUDY    39  35  86 S7        30.38R FOG
RENTON         CLOUDY    36  35  96 E5        30.38R
SEATAC AIRPORT FOG       36  35  96 SE3       30.37R VSB 1/4
JBLM-MCCHORD   FOG       35  34  99 SE3       30.37R VSB<1/4
PUYALLUP       NOT AVBL
BREMERTON      CLOUDY    37  37 100 CALM      30.38S
JBLM-FT LEWIS  FOG       32  32 100 SE3       30.37R VSB 1/2
TACOMA NARROWS CLOUDY    39  36  89 CALM      30.37R
$$

WAZ001-503-506-510-514-515-261800-
NORTH INTERIOR

CITY           SKY/WX    TMP DP  RH WIND       PRES   REMARKS
BELLINGHAM     CLOUDY    39  37  92 CALM      30.36R
FRIDAY HARBOR  CLOUDY    42  39  89 E5        30.37R
EASTSOUND      LGT RAIN  41  39  93 CALM      30.35R
PORT ANGELES   CLOUDY    40  38  93 CALM      30.33F
NAS WHIDBEY    CLOUDY    43  39  86 E7        30.37R
ARLINGTON      CLOUDY    37  36  93 CALM      30.38S
BURLINGTON     CLOUDY    37  37 100 CALM      30.38R
$$

WAZ020-022-039-040-504-511-512-261800-
SOUTHWEST INTERIOR

CITY           SKY/WX    TMP DP  RH WIND       PRES   REMARKS
SHELTON        CLOUDY    37  35  92 N5        30.35R FOG
OLYMPIA        CLOUDY    37  36  96 E3        30.37R
CHEHALIS       CLOUDY    41  41 100 CALM      30.37R
KELSO          CLOUDY    45  39  81 CALM      30.40R
VANCOUVER      CLOUDY    43  41  93 CALM      30.37R
SCAPPOOSE, OR  CLOUDY    43  41  93 CALM      30.36R FOG
PORTLAND, OR   DRIZZLE   42  41  96 SE3       30.37R
$$

WAZ021-516-517-261800-
WASHINGTON COAST

CITY           SKY/WX    TMP DP  RH WIND       PRES   REMARKS
FORKS          CLOUDY    42  42 100 NE5       30.32S
HOQUIAM        CLOUDY    40  39  97 NE8       30.35R FOG
ASTORIA, OR    CLOUDY    44  42  93 SE7       30.33R
$$

WAZ019-023-024-040-518-519-261800-
CASCADE MOUNTAINS AND COLUMBIA GORGE

CITY           SKY/WX    TMP DP  RH WIND       PRES   REMARKS
TROUTDALE, OR  CLOUDY    42  40  92 CALM      30.36R
THE DALLES, OR PTCLDY    37  32  82 E5        30.34R
$$

WAZ026-027-041>044-520-521-261800-
EAST SLOPES

CITY           SKY/WX    TMP DP  RH WIND       PRES   REMARKS
OMAK           CLEAR     26  21  81 CALM      30.29S
WENATCHEE      CLEAR     31  24  75 W8        30.29R
ELLENSBURG     CLEAR     31  22  69 E5        30.27R
YAKIMA         CLEAR     28  20  71 CALM      30.31R
$$

WAZ028-034-035-261800-
COLUMBIA BASIN

CITY           SKY/WX    TMP DP  RH WIND       PRES   REMARKS
EPHRATA        CLEAR     36  23  59 NW8       30.27R
MOSES LAKE     CLEAR     28  23  81 CALM      30.29R
PASCO          CLEAR     28  26  92 N5        30.34R
HERMISTON, OR  CLEAR     32  29  88 CALM      30.33R
$$

WAZ036>038-261800-
NORTHEAST WASHINGTON

CITY           SKY/WX    TMP DP  RH WIND       PRES   REMARKS
SPOKANE GEIGER PTCLDY    22  20  92 CALM      30.21R
SPOKANE FELTS  CLOUDY    25  23  92 CALM      30.25R FOG
FAIRCHILD AFB  CLEAR     26  23  89 W1        30.21R
COEURDALENE,ID CLOUDY    25  21  86 NE5       30.21R
DEER PARK      FOG       25  24  96 S3        30.23R VSB 1/4
$$

WAZ029>033-261800-
SOUTHEAST WASHINGTON

CITY           SKY/WX    TMP DP  RH WIND       PRES   REMARKS
PULLMAN        SUNNY     29  26  89 W9        30.23R
LEWISTON, ID   MOSUNNY   35  29  78 CALM      30.26R
WALLA WALLA    SUNNY     35  31  85 S7        30.29R
PENDLETON, OR  SUNNY     31  28  89 SE6       30.29R
$$


USA.gov is the U.S. government's official web portal to all federal, state and local government web resources and services.